Philip, SD

10:49 AM MDT on October 22, 2017 (GMT -0600)
Philip

Weather History for KPHP - January, 2011

Change the Weather History Date:

Wednesday, January 19, 2011

  Actual Average Record
Temperature  
Mean Temperature 5 °F 22 °F  
Max Temperature 17 °F 35 °F 57 °F (2005)
Min Temperature -7 °F 10 °F -28 °F (1963)
Degree Days  
Heating Degree Days 60 43  
Month to date heating degree days 948 824  
Since 1 July heating degree days 3491 3759  
Cooling Degree Days 0 0  
Month to date cooling degree days 0 0  
Year to date cooling degree days 0 0  
Moisture  
Dew Point 0 °F    
Average Humidity 74    
Maximum Humidity 87    
Minimum Humidity 61    
Precipitation  
Precipitation 0.00 in 0.01 in 0.14 in (1953)
Month to date precipitation 0.12 0.19  
Year to date precipitation 0.12 0.19  
Sea Level Pressure  
Sea Level Pressure 30.26 in    
Wind  
Wind Speed 5 mph (West)    
Max Wind Speed 15 mph    
Max Gust Speed 16 mph    
Visibility 10 miles    
Events      
T = Trace of Precipitation, MM = Missing Value Source: NWS Daily Summary

Daily Weather History Graph

Daily Weather History Graph

Search for Another Location

Airport or City:

Trip Planner

Search our weather history database for the weather conditions in past years. The results will help you decide how hot, cold, wet, or windy it might be!

Date:

Astronomy

Jan. 19, 2011 Rise Set
Actual Time 7:15 AM MST 4:38 PM MST
Civil Twilight 6:43 AM MST 5:10 PM MST
Nautical Twilight 6:08 AM MST 5:46 PM MST
Astronomical Twilight 5:34 AM MST 6:20 PM MST
Moon 4:50 PM MST (1/19) 6:56 AM MST (1/19)
Length of Visible Light 10h 26m
Length of Day
9h 23m
Full, 100% of the Moon is Illuminated
Jan 19
Full
Jan 19
Full
Jan 26
Last Quarter
Feb 2
New
Feb 11
First Quarter

Hourly Weather History & Observations

Time (MST) Temp. Windchill Dew Point Humidity Pressure Visibility Wind Dir Wind Speed Gust Speed Precip Events Conditions
12:55 AM -4.0 °F - -9.0 °F 79% 30.19 in 10.0 mi Calm Calm - N/A   Clear
1:55 AM -7.1 °F -18.1 °F -11.0 °F 83% 30.20 in 10.0 mi WNW 4.6 mph - N/A   Clear
2:55 AM -6.0 °F - -9.9 °F 83% 30.19 in 10.0 mi Calm Calm - N/A   Clear
3:55 AM -4.0 °F - -8.0 °F 83% 30.18 in 10.0 mi Calm Calm - N/A   Partly Cloudy
4:55 AM -2.0 °F - -5.1 °F 87% 30.18 in 10.0 mi Calm Calm - N/A   Overcast
5:55 AM -0.0 °F -7.9 °F -4.0 °F 83% 30.19 in 10.0 mi WSW 3.5 mph - N/A   Overcast
6:55 AM 1.9 °F - -2.0 °F 83% 30.19 in 10.0 mi Calm Calm - N/A   Overcast
7:55 AM 3.9 °F - -0.9 °F 80% 30.20 in 10.0 mi Calm Calm - N/A   Overcast
8:55 AM 5.0 °F - 1.0 °F 84% 30.22 in 10.0 mi Calm Calm - N/A   Partly Cloudy
9:55 AM 7.0 °F 0.1 °F 1.9 °F 80% 30.23 in 10.0 mi West 3.5 mph - N/A   Clear
10:55 AM 10.0 °F 0.4 °F 3.9 °F 76% 30.25 in 10.0 mi West 5.8 mph - N/A   Clear
11:55 AM 14.0 °F 6.5 °F 3.9 °F 64% 30.23 in 10.0 mi WNW 4.6 mph - N/A   Overcast
12:55 PM 15.1 °F 4.2 °F 5.0 °F 64% 30.23 in 10.0 mi WNW 8.1 mph - N/A   Clear
1:55 PM 15.1 °F 4.2 °F 6.1 °F 68% 30.25 in 10.0 mi West 8.1 mph - N/A   Clear
2:55 PM 16.0 °F 4.4 °F 7.0 °F 68% 30.26 in 10.0 mi West 9.2 mph - N/A   Clear
3:55 PM 14.0 °F 6.5 °F 5.0 °F 67% 30.28 in 10.0 mi NW 4.6 mph - N/A   Clear
4:55 PM 8.1 °F -4.3 °F 1.9 °F 76% 30.30 in 10.0 mi West 8.1 mph - N/A   Clear
5:55 PM 5.0 °F -4.1 °F -0.0 °F 80% 30.33 in 10.0 mi WNW 4.6 mph - N/A   Clear
6:55 PM 3.9 °F -9.4 °F -0.9 °F 80% 30.36 in 10.0 mi West 8.1 mph - N/A   Clear
7:55 PM 7.0 °F -5.7 °F 1.9 °F 80% 30.36 in 10.0 mi West 8.1 mph - N/A   Clear
8:55 PM 5.0 °F -8.1 °F 1.0 °F 84% 30.36 in 10.0 mi West 8.1 mph - N/A   Clear
9:55 PM 6.1 °F -7.8 °F 1.9 °F 83% 30.36 in 10.0 mi West 9.2 mph - N/A   Clear
10:55 PM 7.0 °F -7.5 °F 1.9 °F 80% 30.36 in 10.0 mi West 10.4 mph - N/A   Clear
11:55 PM 7.0 °F -9.8 °F 1.9 °F 80% 30.35 in 10.0 mi West 13.8 mph - N/A   Clear